Terminal Aerodrome Forecast
Issued by NWS

Home | Current Version | Previous Version | Text Only | Print | Product List | Glossary On
Versions: 1 2 3 4 5 6 7 8 9 10 11 12 13 14 15 16 17
000
FTUS46 KPDT 300500
TAFPSC
TAF
KPSC 300521Z 3006/3106 34006KT P6SM OVC012
     FM301200 33004KT 6SM BR OVC008
     FM301800 31005KT P6SM BKN015
     FM310300 VRB02KT P6SM OVC008=

USA.gov is the U.S. government's official web portal to all federal, state and local government web resources and services.